Regional Weather Roundup
Issued by NWS Portland, ME

Home | Current Version | Previous Version | Text Only | Print | Product List | Glossary On
Versions: 1 2 3 4 5 6 7 8 9 10 11 12 13 14 15 16 17 18 19 20 21 22 23 24 25 26 27 28 29 30 31 32 33 34 35 36 37 38 39 40 41 42 43 44 45 46 47 48 49 50
000
ASUS41 KGYX 270910
RWRGYX
WEATHER ROUNDUP FOR MAINE AND NEW HAMPSHIRE
NATIONAL WEATHER SERVICE GRAY ME
500 AM EDT TUE SEP 27 2016

MEZ002-005-006-010-012-015-018-020-021-024-026-027-029-271000-
MAINE

CITY           SKY/WX    TMP DP  RH WIND       PRES   REMARKS
PORTLAND       LGT RAIN  55  50  83 W3        29.92S
SANFORD        LGT RAIN  56  50  80 SW5       29.92S
BAR HARBOR     CLOUDY   N/A N/A N/A SW9       29.92F
WISCASSET      CLOUDY    61  53  75 VRB5      29.92F
ROCKLAND       CLOUDY    60  54  80 SW12      29.90F
FRYEBURG       LGT RAIN  54  49  83 VRB5      29.91S
LEWISTONAUBURN LGT RAIN  53  49  86 S5        29.90F
AUGUSTA        CLOUDY    54  47  77 SW7       29.90F
WATERVILLE     CLOUDY    51  48  89 CALM      29.88S
BANGOR         CLOUDY    53  49  86 S5        29.91S
GREENVILLE       N/A     46  44  93 CALM      29.86F
MILLINOCKET    CLOUDY    47  44  90 E3        29.90F
HOULTON        LGT RAIN  45  43  93 SW5       29.88F
PRESQUE ISLE   CLOUDY    39  38  96 CALM      29.89S
FRENCHVILLE    CLOUDY    42  38  85 CALM      29.86S
CARIBOU        CLOUDY    42  39  89 CALM      29.87F
$$

NHZ002-005-008-009-011-012-014-271000-
NEW HAMPSHIRE

CITY           SKY/WX    TMP DP  RH WIND       PRES   REMARKS
PORTSMOUTH     CLOUDY    60  51  72 S5        29.90F
ROCHESTER      LGT RAIN  54  49  83 CALM      29.91F
NASHUA         RAIN      59  54  83 CALM      29.92S
MANCHESTER     RAIN      58  52  80 S5        29.90F
CONCORD        LGT RAIN  56  52  86 CALM      29.91F FOG
LACONIA        RAIN      54  52  93 W3        29.91F
BERLIN         LGT RAIN  49  46  90 CALM      29.89S
WHITEFIELD     RAIN      50  47  89 CALM      29.89F FOG
JAFFREY        RAIN      57  54  89 S6        29.93S FOG
KEENE          LGT RAIN  55  54  96 CALM      29.91F
LEBANON        LGT RAIN  56  54  93 CALM      29.89F FOG
MT WASHINGTON  LGT RAIN  41  41 100 W36G43      N/A  VSB 0
$$

VTZ005-007-008-271000-
VERMONT

CITY           SKY/WX    TMP DP  RH WIND       PRES   REMARKS
ST JOHNSBURY     N/A     52  51  97 MISG      29.87S
MONTPELIER     CLOUDY    53  51  93 S5        29.91S
BURLINGTON     CLOUDY    58  54  86 S9        29.86R
$$

MAZ007-012-024-CTZ003-RIZ002-NYZ038-NYZ072-271000-
SOUTHERN NEW ENGLAND AND NY

CITY           SKY/WX    TMP DP  RH WIND       PRES   REMARKS
BOSTON         LGT RAIN  61  56  83 S3        29.92F
WORCESTER      HVY RAIN  57  56  96 SW8       29.92F FOG
NANTUCKET      CLOUDY    66  60  81 S14       29.97F
PROVIDENCE     CLOUDY    66  59  78 S8        29.92F
HARTFORD       RAIN      61  59  93 CALM      29.91S FOG
ALBANY         CLOUDY    58  56  93 S3        29.90S
NEW YORK CITY  LGT RAIN  68  65  90 SW9       29.89F
$$

ANZ081-ANZ082-ANZ150-NHZ014-MEZ023>029-271000-
COASTAL MARINE OBSERVATIONS

STATION/POSITION TIME  TEMP    WIND        PRES    WAVE
                       AIR SEA DIR/SP/G            HT/PER
                 (UTC) (F)     (DEG/KT/KT) (MB)    (FT/S)
MOUNT DESERT ROC 0900   58     180/ 12/ 13 1013.5F
MATINICUS ROCK   0800   58     200/ 20/ 21 1013.2F
ISLE OF SHOALS   0800   62     200/ 20/ 23 1013.1F
JEFFREYS LEDGE   0838      60                N/A     3/ 5
CASHES LEDGE BUO 0850   62 60  190/ 16/ 17 1013.7F   4/ 6
GEORGES BANK BUO 0750   60 62              1018.2    2/12
$$

.............KEY..............
   WCI - WIND CHILL
   TC  - TEMPERATURE IN CELSIUS
   VSB - VISIBILITY IN MILES
   HX  - HEAT INDEX
   FAIR- INDICATES FEW OR NO CLOUDS BELOW 12,000 FT, WITH NO
         SIGNIFICANT WEATHER AND/OR OBSTRUCTIONS TO VISIBILITY.






USA.gov is the U.S. government's official web portal to all federal, state and local government web resources and services.